Regional Weather Roundup
Issued by NWS Little Rock, AR

Home | Current Version | Previous Version | Text Only | Print | Product List | Glossary Off
Versions: 1 2 3 4 5 6 7 8 9 10 11 12 13 14 15 16 17 18 19 20 21 22 23 24 25 26 27 28 29 30 31 32 33 34 35 36 37 38 39 40 41 42 43 44 45 46 47 48 49 50

000
ASUS44 KLZK 230805
RWRLZK

WEATHER ROUNDUP FOR ARKANSAS
NATIONAL WEATHER SERVICE LITTLE ROCK AR
300 AM CDT TUE MAY 23 2017

NOTE: "FAIR" INDICATES FEW OR NO CLOUDS BELOW 12,000 FEET WITH NO
SIGNIFICANT WEATHER AND/OR OBSTRUCTIONS TO VISIBILITY.

ARZ001-003-010-029-230900-
NORTHWEST ARKANSAS

CITY           SKY/WX    TMP DP  RH WIND       PRES   REMARKS
FAYETTEVILLE   CLOUDY    59  57  93 S3        29.88F
FORT SMITH     CLOUDY    64  61  90 W9        29.87S
HARRISON       CLOUDY    58  54  86 NW3       29.87F
BENTONVILLE    CLOUDY    63  55  77 W7        29.89F
ROGERS         CLOUDY    62  57  83 W6        29.89F
SILOAM SPGS    CLOUDY    61  54  77 W5        29.89S
HIGHFILL       LGT RAIN  62  57  83 W9        29.89
$$

ARZ004-005-016-230900-
NORTH CENTRAL ARKANSAS

CITY           SKY/WX    TMP DP  RH WIND       PRES   REMARKS
BATESVILLE     CLOUDY    55  54  94 CALM      29.87S
FLIPPIN        CLOUDY    59  50  72 CALM      29.84F
MTN HOME       CLOUDY    60  51  72 SW3       29.86F
$$

ARZ040-041-230900-
WEST CENTRAL ARKANSAS

CITY           SKY/WX    TMP DP  RH WIND       PRES   REMARKS
MENA           CLOUDY    61  61 100 N10       29.85F
MOUNT IDA      CLOUDY    60  54  80 SE3       29.84F
$$

ARZ009-017-025-026-028-230900-
NORTHEAST ARKANSAS

CITY           SKY/WX    TMP DP  RH WIND       PRES   REMARKS
JONESBORO      CLOUDY    59  56  89 W3        29.85F
NEWPORT        CLOUDY    60  58  92 SW3       29.87F
WALNUT RIDGE   CLOUDY    63  55  77 CALM      29.86S
BLYTHEVILLE    CLOUDY    65  61  87 CALM      29.85F
$$

ARZ022-023-033-042-044-230900-
CENTRAL ARKANSAS

CITY           SKY/WX    TMP DP  RH WIND       PRES   REMARKS
LITTLE ROCK    CLOUDY    62  60  93 W5        29.87F
N LITTLE ROCK    N/A     60  56  87 CALM      29.87F
JACKSONVILLE   MOCLDY    58  57  99 CALM      29.86F
CONWAY           N/A     59  59 100 S5        29.85F
SEARCY         MOCLDY    58  58 100 NW3       29.88F
HOT SPRINGS    CLOUDY    59  58  96 W5        29.89S
RUSSELLVILLE   MOCLDY    60  56  86 CALM      29.86F
CLINTON        MOCLDY    55  54  94 CALM      29.87F
$$

ARZ036-230900-
EAST ARKANSAS

CITY           SKY/WX    TMP DP  RH WIND       PRES   REMARKS
WEST MEMPHIS   CLOUDY    63  62  97 CALM      29.84F
$$

ARZ050-053-066-070-073-230900-
SOUTHWEST ARKANSAS

CITY           SKY/WX    TMP DP  RH WIND       PRES   REMARKS
ARKADELPHIA      N/A     61  58  90 CALM      29.89F
CAMDEN         CLOUDY    61  57  88 CALM      29.88S
TEXARKANA      CLOUDY    60  58  92 N7        29.91S
EL DORADO      CLOUDY    62  61  96 CALM      29.87F
DE QUEEN       CLOUDY    61  60  97 E10       29.80F
$$

ARZ056-057-069-230900-
SOUTHEAST ARKANSAS

CITY           SKY/WX    TMP DP  RH WIND       PRES   REMARKS
PINE BLUFF     CLOUDY    64  60  87 CALM      29.87F
STUTTGART      CLOUDY    66  52  59 CALM      29.87F
MONTICELLO     CLOUDY    63  60  90 CALM      29.86F

$$





USA.gov is the U.S. government's official web portal to all federal, state and local government web resources and services.